| time (UTC) | temp C | wind direction | speed KPH | gust KPH | rain 1hr cm | rain 24hr cm | rain mn cm | humidity % | barometer mb |
| 20260507080750 | 6 | 287 | 0.0 | 1.6 | 0.00 | 0.00 | 0.00 | 89 | 1013.8 |
| 20260507080226 | 6 | 287 | 0.0 | 4.8 | 0.00 | 0.00 | 0.00 | 89 | 1013.7 |
| 20260507075720 | 6 | 287 | 0.0 | 4.8 | 0.00 | 0.00 | 0.00 | 89 | 1013.7 |
| 20260507075218 | 6 | 287 | 0.0 | 3.2 | 0.00 | 0.03 | 0.00 | 89 | 1013.7 |
| 20260507074713 | 6 | 287 | 0.0 | 1.6 | 0.00 | 0.03 | 0.00 | 90 | 1013.7 |
| 20260507074525 | 6 | 287 | 0.0 | 0.0 | 0.00 | 0.20 | 0.00 | 90 | 1014.1 |
| 20260507074212 | 6 | 287 | 0.0 | 0.0 | 0.00 | 0.05 | 0.00 | 90 | 1013.7 |
| 20260507073708 | 6 | 287 | 0.0 | 0.0 | 0.00 | 0.08 | 0.00 | 90 | 1013.7 |
| 20260507073206 | 6 | 287 | 0.0 | 0.0 | 0.00 | 0.10 | 0.00 | 90 | 1013.7 |
| 20260507073026 | 6 | 287 | 0.0 | 0.0 | 0.00 | 0.20 | 0.00 | 91 | 1014.1 |
| 20260507072639 | 6 | 287 | 0.0 | 1.6 | 0.00 | 0.10 | 0.00 | 91 | 1013.7 |
| 20260507072140 | 6 | 287 | 0.0 | 1.6 | 0.00 | 0.10 | 0.00 | 91 | 1013.7 |
| 20260507071831 | 6 | 287 | 0.0 | 4.8 | 0.00 | 0.13 | 0.00 | 91 | 1013.7 |
| 20260507071616 | 6 | 287 | 0.0 | 4.8 | 0.00 | 0.20 | 0.00 | 91 | 1014.1 |
| 20260507071107 | 6 | 288 | 0.0 | 4.8 | 0.00 | 0.13 | 0.00 | 91 | 1013.7 |
| 20260507070604 | 6 | 287 | 0.0 | 3.2 | 0.00 | 0.15 | 0.00 | 91 | 1013.7 |
| 20260507070037 | 6 | 287 | 0.0 | 1.6 | 0.00 | 0.20 | 0.00 | 90 | 1013.7 |
| 20260507070011 | 6 | 287 | 0.0 | 1.6 | 0.00 | 0.33 | 0.00 | 90 | 1014.1 |
| 20260507065510 | 6 | 287 | 0.0 | 3.2 | 0.00 | 0.23 | 0.00 | 90 | 1013.7 |
| 20260507064944 | 7 | 287 | 0.0 | 3.2 | 0.00 | 0.25 | 0.00 | 90 | 1013.8 |
| 20260507064647 | 7 | 288 | 0.0 | 1.6 | 0.00 | 0.28 | 0.00 | 90 | 1013.8 |
| 20260507064600 | 6 | 287 | 0.0 | 1.6 | 0.00 | 0.33 | 0.00 | 90 | 1014.2 |
| 20260507063914 | 7 | 287 | 0.0 | 3.2 | 0.00 | 0.28 | 0.00 | 90 | 1013.9 |
| 20260507063412 | 7 | 287 | 0.0 | 1.6 | 0.00 | 0.28 | 0.00 | 90 | 1013.9 |
| 20260507063013 | 7 | 287 | 0.0 | 4.8 | 0.00 | 0.33 | 0.00 | 90 | 1014.3 |
| 20260507062844 | 7 | 288 | 0.0 | 4.8 | 0.00 | 0.28 | 0.00 | 90 | 1013.9 |
| 20260507062342 | 7 | 288 | 0.0 | 3.2 | 0.00 | 0.28 | 0.00 | 89 | 1013.9 |
| 20260507061814 | 7 | 287 | 0.0 | 1.6 | 0.00 | 0.28 | 0.00 | 89 | 1013.9 |
| 20260507061539 | 7 | 287 | 0.0 | 1.6 | 0.00 | 0.33 | 0.00 | 89 | 1014.2 |
| 20260507061512 | 7 | 287 | 0.0 | 1.6 | 0.00 | 0.30 | 0.00 | 89 | 1013.8 |
| 20260507060950 | 7 | 287 | 0.0 | 1.6 | 0.00 | 0.33 | 0.00 | 89 | 1013.8 |
| 20260507060156 | 7 | 287 | 0.0 | 1.6 | 0.00 | 0.33 | 0.00 | 89 | 1013.8 |
| 20260507060031 | 7 | 287 | 0.0 | 1.6 | 0.00 | 0.33 | 0.00 | 89 | 1014.2 |
| 20260507055631 | 7 | 287 | 0.0 | 1.6 | 0.00 | 0.36 | 0.00 | 88 | 1013.9 |
| 20260507055106 | 7 | 287 | 1.6 | 3.2 | 0.00 | 0.38 | 0.00 | 88 | 1013.9 |
| 20260507054538 | 7 | 287 | 1.6 | 3.2 | 0.00 | 0.38 | 0.00 | 88 | 1014.0 |
| 20260507054516 | 7 | 287 | 0.0 | 3.2 | 0.00 | 0.61 | 0.00 | 88 | 1014.4 |
| 20260507054011 | 7 | 288 | 0.0 | 3.2 | 0.00 | 0.38 | 0.00 | 88 | 1014.0 |
| 20260507053510 | 7 | 287 | 0.0 | 3.2 | 0.00 | 0.41 | 0.00 | 87 | 1014.0 |
| 20260507053048 | 7 | 287 | 0.0 | 3.2 | 0.00 | 0.61 | 0.00 | 87 | 1014.4 |
| 20260507053006 | 7 | 287 | 0.0 | 1.6 | 0.00 | 0.43 | 0.00 | 86 | 1014.0 |
| 20260507052437 | 8 | 287 | 0.0 | 3.2 | 0.00 | 0.43 | 0.00 | 86 | 1013.9 |
| 20260507051936 | 8 | 287 | 0.0 | 3.2 | 0.00 | 0.46 | 0.00 | 85 | 1013.8 |
| 20260507051548 | 8 | 287 | 0.0 | 3.2 | 0.00 | 0.61 | 0.00 | 85 | 1014.3 |
| 20260507051409 | 8 | 287 | 0.0 | 3.2 | 0.00 | 0.48 | 0.00 | 85 | 1013.9 |
| 20260507050906 | 8 | 287 | 0.0 | 3.2 | 0.00 | 0.53 | 0.00 | 84 | 1014.0 |
| 20260507050406 | 8 | 287 | 1.6 | 4.8 | 0.00 | 0.58 | 0.00 | 83 | 1014.1 |
| 20260507050119 | 8 | 287 | 1.6 | 4.8 | 0.00 | 0.61 | 0.00 | 82 | 1014.2 |
| 20260507050025 | 8 | 287 | 0.0 | 4.8 | 0.00 | 0.61 | 0.00 | 82 | 1014.6 |
| 20260507045356 | 8 | 288 | 1.6 | 4.8 | 0.00 | 0.66 | 0.00 | 81 | 1014.1 |
| 20260507044830 | 9 | 288 | 1.6 | 4.8 | 0.00 | 0.71 | 0.00 | 81 | 1014.2 |
| 20260507044540 | 8 | 288 | 0.0 | 4.8 | 0.00 | 1.07 | 0.00 | 80 | 1014.6 |
| 20260507044301 | 9 | 288 | 1.6 | 4.8 | 0.00 | 0.79 | 0.00 | 80 | 1014.2 |
| 20260507043800 | 9 | 288 | 1.6 | 4.8 | 0.00 | 0.79 | 0.00 | 79 | 1014.1 |
| 20260507043234 | 9 | 288 | 1.6 | 4.8 | 0.00 | 0.81 | 0.00 | 78 | 1014.0 |
| 20260507043035 | 9 | 287 | 0.0 | 4.8 | 0.00 | 1.07 | 0.00 | 78 | 1014.3 |
| 20260507042731 | 10 | 287 | 1.6 | 6.4 | 0.00 | 0.81 | 0.00 | 77 | 1013.9 |
| 20260507042226 | 10 | 287 | 1.6 | 6.4 | 0.00 | 0.86 | 0.00 | 77 | 1013.9 |
| 20260507041722 | 10 | 287 | 1.6 | 4.8 | 0.00 | 0.86 | 0.00 | 77 | 1014.0 |
| 20260507041509 | 10 | 287 | 1.6 | 4.8 | 0.00 | 1.07 | 0.00 | 77 | 1014.4 |
| 20260507041216 | 10 | 287 | 1.6 | 4.8 | 0.00 | 0.91 | 0.00 | 76 | 1014.0 |
| 20260507040652 | 10 | 287 | 1.6 | 4.8 | 0.00 | 0.99 | 0.00 | 76 | 1014.0 |
| 20260507040125 | 10 | 287 | 1.6 | 4.8 | 0.00 | 1.07 | 0.00 | 75 | 1013.9 |
| 20260507040008 | 10 | 287 | 1.6 | 4.8 | 0.00 | 1.17 | 1.07 | 75 | 1014.3 |
| 20260507035558 | 10 | 287 | 1.6 | 3.2 | 0.00 | 1.09 | 1.07 | 74 | 1013.9 |
| 20260507035032 | 10 | 287 | 0.0 | 3.2 | 0.00 | 1.12 | 1.07 | 73 | 1013.9 |
| 20260507034522 | 10 | 287 | 0.0 | 3.2 | 0.00 | 1.17 | 1.07 | 72 | 1014.3 |
| 20260507034505 | 10 | 287 | 1.6 | 3.2 | 0.00 | 1.12 | 1.07 | 72 | 1014.0 |
| 20260507034002 | 10 | 287 | 1.6 | 3.2 | 0.00 | 1.14 | 1.07 | 72 | 1014.0 |
| 20260507033457 | 10 | 287 | 1.6 | 3.2 | 0.00 | 1.14 | 1.07 | 71 | 1014.0 |
| 20260507033213 | 10 | 288 | 0.0 | 3.2 | 0.00 | 1.14 | 1.07 | 71 | 1013.9 |
| 20260507033039 | 10 | 288 | 0.0 | 3.2 | 0.00 | 1.17 | 1.07 | 71 | 1014.3 |
| 20260507032429 | 10 | 288 | 0.0 | 1.6 | 0.00 | 1.14 | 1.07 | 71 | 1013.9 |
| 20260507031928 | 10 | 289 | 0.0 | 1.6 | 0.00 | 1.14 | 1.07 | 71 | 1014.0 |
| 20260507031526 | 9 | 288 | 0.0 | 0.0 | 0.00 | 1.17 | 1.07 | 70 | 1014.3 |
| 20260507031359 | 10 | 288 | 0.0 | 1.6 | 0.00 | 1.14 | 1.07 | 70 | 1014.0 |
| 20260507030857 | 10 | 288 | 0.0 | 1.6 | 0.00 | 1.14 | 1.07 | 70 | 1014.0 |
| 20260507030330 | 10 | 288 | 0.0 | 0.0 | 0.00 | 1.14 | 1.07 | 70 | 1014.0 |
| 20260507030040 | 10 | 288 | 0.0 | 0.0 | 0.00 | 1.17 | 1.07 | 69 | 1014.4 |
| 20260507025817 | 10 | 288 | 0.0 | 0.0 | 0.00 | 1.17 | 1.07 | 69 | 1014.1 |
| 20260507025545 | 10 | 288 | 0.0 | 0.0 | 0.00 | 1.17 | 1.07 | 69 | 1014.1 |
| 20260507024754 | 10 | 288 | 0.0 | 0.0 | 0.00 | 1.19 | 1.07 | 68 | 1014.1 |
| 20260507024554 | 10 | 288 | 0.0 | 0.0 | 0.00 | 1.35 | 1.07 | 67 | 1014.4 |
| 20260507024255 | 10 | 288 | 0.0 | 0.0 | 0.00 | 1.19 | 1.07 | 67 | 1014.0 |
| 20260507024202 | 10 | 287 | 0.0 | 0.0 | 0.00 | 1.22 | 1.07 | 67 | 1014.0 |
| 20260507023229 | 10 | 287 | 0.0 | 1.6 | 0.00 | 1.24 | 1.07 | 67 | 1014.0 |
| 20260507023047 | 10 | 287 | 0.0 | 1.6 | 0.00 | 1.35 | 1.07 | 67 | 1014.3 |
| 20260507022702 | 10 | 287 | 0.0 | 1.6 | 0.00 | 1.27 | 1.07 | 66 | 1014.0 |
| 20260507022200 | 10 | 287 | 0.0 | 1.6 | 0.00 | 1.30 | 1.07 | 66 | 1014.0 |
| 20260507021658 | 10 | 287 | 0.0 | 0.0 | 0.00 | 1.30 | 1.07 | 66 | 1014.0 |
| 20260507021605 | 10 | 287 | 0.0 | 0.0 | 0.00 | 1.35 | 1.07 | 66 | 1014.3 |
| 20260507021156 | 10 | 287 | 0.0 | 1.6 | 0.00 | 1.30 | 1.07 | 66 | 1013.9 |
| 20260507020636 | 10 | 287 | 0.0 | 1.6 | 0.00 | 1.32 | 1.07 | 67 | 1013.8 |
| 20260507020111 | 10 | 287 | 0.0 | 0.0 | 0.00 | 1.32 | 1.07 | 67 | 1013.8 |
| 20260507020021 | 10 | 287 | 0.0 | 0.0 | 0.00 | 1.35 | 1.07 | 67 | 1014.1 |
| 20260507015612 | 10 | 287 | 0.0 | 1.6 | 0.00 | 1.37 | 1.07 | 67 | 1013.7 |
| 20260507015052 | 10 | 287 | 0.0 | 1.6 | 0.00 | 1.40 | 1.07 | 67 | 1013.7 |
| 20260507014552 | 10 | 287 | 0.0 | 1.6 | 0.00 | 1.42 | 1.07 | 67 | 1013.7 |
| 20260507014522 | 10 | 287 | 0.0 | 1.6 | 0.00 | 1.52 | 1.07 | 67 | 1014.0 |
| 20260507014032 | 10 | 287 | 0.0 | 1.6 | 0.00 | 1.42 | 1.07 | 67 | 1013.6 |
| 20260507013534 | 10 | 287 | 0.0 | 1.6 | 0.00 | 1.42 | 1.07 | 68 | 1013.5 |
| 20260507013231 | 10 | 287 | 0.0 | 0.0 | 0.00 | 1.42 | 1.07 | 67 | 1013.5 |
| 20260507013049 | 10 | 287 | 0.0 | 0.0 | 0.00 | 1.52 | 1.07 | 67 | 1013.7 |
| 20260507012452 | 11 | 287 | 0.0 | 0.0 | 0.00 | 1.42 | 1.07 | 67 | 1013.4 |
| 20260507012428 | 11 | 288 | 0.0 | 1.6 | 0.00 | 1.42 | 1.07 | 67 | 1013.2 |
| 20260507011536 | 11 | 288 | 0.0 | 1.6 | 0.00 | 1.52 | 1.07 | 67 | 1013.5 |
| 20260507011449 | 11 | 288 | 0.0 | 1.6 | 0.00 | 1.45 | 1.07 | 67 | 1013.3 |
| 20260507010922 | 11 | 288 | 0.0 | 0.0 | 0.00 | 1.47 | 1.07 | 66 | 1013.3 |
| 20260507010422 | 11 | 287 | 0.0 | 0.0 | 0.00 | 1.50 | 1.07 | 64 | 1013.4 |
| 20260507010035 | 11 | 288 | 0.0 | 0.0 | 0.00 | 1.52 | 1.07 | 64 | 1013.7 |
| 20260507005919 | 11 | 288 | 0.0 | 0.0 | 0.00 | 1.55 | 1.07 | 64 | 1013.4 |
| 20260507005423 | 11 | 287 | 0.0 | 0.0 | 0.00 | 1.57 | 1.07 | 63 | 1013.3 |
| 20260507005124 | 12 | 288 | 0.0 | 1.6 | 0.00 | 1.63 | 1.07 | 63 | 1013.3 |
| 20260507004519 | 11 | 288 | 0.0 | 1.6 | 0.00 | 1.70 | 1.07 | 62 | 1013.5 |
| 20260507004341 | 12 | 290 | 0.0 | 1.6 | 0.00 | 1.65 | 1.07 | 62 | 1013.3 |
| 20260507003820 | 12 | 273 | 0.0 | 1.6 | 0.00 | 1.65 | 1.07 | 62 | 1013.3 |
| 20260507003257 | 12 | 273 | 0.0 | 1.6 | 0.00 | 1.65 | 1.07 | 62 | 1013.2 |
| 20260507003031 | 12 | 273 | 0.0 | 3.2 | 0.00 | 1.70 | 1.07 | 62 | 1013.4 |
| 20260507002743 | 12 | 273 | 0.0 | 3.2 | 0.00 | 1.65 | 1.07 | 61 | 1013.2 |
| 20260507002243 | 12 | 273 | 1.6 | 4.8 | 0.00 | 1.65 | 1.07 | 61 | 1013.1 |
| 20260507001720 | 12 | 273 | 0.0 | 4.8 | 0.00 | 1.68 | 1.07 | 60 | 1013.0 |
| 20260507001549 | 12 | 290 | 0.0 | 4.8 | 0.00 | 1.70 | 1.07 | 61 | 1013.3 |
| 20260507001158 | 12 | 292 | 0.0 | 3.2 | 0.00 | 1.68 | 1.07 | 61 | 1012.8 |
| 20260507000658 | 12 | 291 | 1.6 | 3.2 | 0.00 | 1.70 | 1.07 | 60 | 1012.8 |
| 20260507000149 | 13 | 273 | 1.6 | 3.2 | 0.00 | 1.70 | 1.07 | 59 | 1012.7 |
| 20260507000008 | 12 | 289 | 0.0 | 3.2 | 0.00 | 1.75 | 1.07 | 60 | 1013.1 |
| 20260506235649 | 13 | 289 | 1.6 | 6.4 | 0.00 | 1.70 | 1.07 | 60 | 1012.8 |
| 20260506235147 | 13 | 289 | 1.6 | 6.4 | 0.00 | 1.70 | 1.07 | 58 | 1012.6 |
| 20260506235128 | 13 | 289 | 1.6 | 4.8 | 0.00 | 1.73 | 1.07 | 59 | 1012.6 |
| 20260506234502 | 13 | 291 | 1.6 | 4.8 | 0.00 | 1.75 | 1.07 | 59 | 1012.9 |
| 20260506234117 | 13 | 291 | 3.2 | 8.0 | 0.00 | 1.73 | 1.07 | 60 | 1012.7 |
| 20260506233557 | 13 | 273 | 3.2 | 8.0 | 0.00 | 1.73 | 1.07 | 58 | 1012.7 |
| 20260506233034 | 13 | 273 | 3.2 | 8.0 | 0.00 | 1.73 | 1.07 | 58 | 1012.6 |
| 20260506233002 | 13 | 273 | 1.6 | 8.0 | 0.00 | 1.75 | 1.07 | 56 | 1012.9 |
| 20260506232508 | 13 | 290 | 3.2 | 6.4 | 0.00 | 1.75 | 1.07 | 57 | 1012.6 |
| 20260506231947 | 14 | 273 | 3.2 | 6.4 | 0.00 | 1.75 | 1.07 | 54 | 1012.3 |
| 20260506231528 | 13 | 288 | 3.2 | 6.4 | 0.00 | 1.75 | 1.07 | 53 | 1012.6 |
| 20260506231445 | 14 | 288 | 3.2 | 6.4 | 0.00 | 1.75 | 1.07 | 53 | 1012.2 |
| 20260506230943 | 14 | 216 | 3.2 | 8.0 | 0.00 | 1.75 | 1.07 | 53 | 1012.4 |
| 20260506230456 | 14 | 215 | 3.2 | 11.3 | 0.00 | 1.75 | 1.07 | 53 | 1012.4 |
| 20260506230023 | 14 | 192 | 1.6 | 9.7 | 0.00 | 1.75 | 1.07 | 57 | 1012.7 |
| 20260506225940 | 14 | 190 | 3.2 | 12.9 | 0.00 | 1.75 | 1.07 | 57 | 1012.4 |
| 20260506225437 | 14 | 292 | 3.2 | 12.9 | 0.00 | 1.75 | 1.07 | 60 | 1012.6 |
| 20260506224913 | 14 | 291 | 1.6 | 6.4 | 0.00 | 1.75 | 1.07 | 55 | 1012.5 |
| 20260506224537 | 13 | 273 | 1.6 | 6.4 | 0.00 | 1.78 | 1.07 | 57 | 1012.8 |
| 20260506224348 | 14 | 273 | 1.6 | 6.4 | 0.00 | 1.75 | 1.07 | 57 | 1012.5 |
| 20260506223847 | 14 | 273 | 1.6 | 4.8 | 0.00 | 1.75 | 1.07 | 58 | 1012.5 |
| 20260506223343 | 14 | 273 | 3.2 | 6.4 | 0.00 | 1.75 | 1.07 | 56 | 1012.7 |
| 20260506223010 | 13 | 273 | 3.2 | 6.4 | 0.00 | 1.78 | 1.07 | 56 | 1013.0 |
| 20260506222840 | 14 | 273 | 1.6 | 6.4 | 0.00 | 1.75 | 1.07 | 56 | 1012.7 |
| 20260506222333 | 14 | 273 | 3.2 | 8.0 | 0.00 | 1.75 | 1.07 | 56 | 1012.7 |
| 20260506221805 | 14 | 273 | 3.2 | 8.0 | 0.00 | 1.75 | 1.07 | 56 | 1012.7 |
| 20260506221515 | 13 | 273 | 1.6 | 6.4 | 0.00 | 1.78 | 1.07 | 53 | 1013.1 |
| 20260506221238 | 14 | 273 | 1.6 | 6.4 | 0.00 | 1.78 | 1.07 | 54 | 1012.8 |
| 20260506220731 | 14 | 273 | 1.6 | 6.4 | 0.00 | 1.78 | 1.07 | 52 | 1012.8 |
| 20260506220714 | 14 | 273 | 1.6 | 8.0 | 0.00 | 1.78 | 1.07 | 51 | 1013.0 |
| 20260506220002 | 13 | 273 | 1.6 | 4.8 | 0.00 | 1.85 | 1.07 | 55 | 1013.2 |
| 20260506215703 | 14 | 273 | 3.2 | 8.0 | 0.00 | 1.78 | 1.07 | 56 | 1013.0 |
| 20260506215208 | 14 | 273 | 3.2 | 8.0 | 0.00 | 1.78 | 1.07 | 53 | 1012.8 |
| 20260506214632 | 14 | 273 | 1.6 | 8.0 | 0.00 | 1.78 | 1.07 | 59 | 1012.8 |
| 20260506214602 | 13 | 273 | 1.6 | 8.0 | 0.00 | 1.85 | 1.07 | 60 | 1013.1 |
| 20260506214105 | 14 | 273 | 1.6 | 4.8 | 0.00 | 1.80 | 1.07 | 54 | 1012.8 |
| 20260506213539 | 14 | 273 | 1.6 | 8.0 | 0.00 | 1.80 | 1.07 | 57 | 1012.7 |
| 20260506213057 | 13 | 273 | 0.0 | 6.4 | 0.00 | 1.85 | 1.07 | 53 | 1013.0 |
| 20260506213035 | 14 | 273 | 3.2 | 8.0 | 0.00 | 1.83 | 1.07 | 53 | 1012.7 |
| 20260506212530 | 14 | 273 | 3.2 | 8.0 | 0.00 | 1.83 | 1.07 | 54 | 1012.7 |
| 20260506212006 | 14 | 273 | 3.2 | 11.3 | 0.00 | 1.85 | 1.07 | 54 | 1012.6 |
| 20260506211523 | 13 | 273 | 1.6 | 9.7 | 0.00 | 1.85 | 1.07 | 53 | 1012.8 |
| 20260506211452 | 14 | 273 | 4.8 | 11.3 | 0.00 | 1.85 | 1.07 | 53 | 1012.5 |
| 20260506210951 | 14 | 288 | 4.8 | 11.3 | 0.00 | 1.85 | 1.07 | 53 | 1012.4 |
| 20260506210447 | 14 | 273 | 4.8 | 14.5 | 0.00 | 1.85 | 1.07 | 54 | 1012.3 |
| 20260506210203 | 15 | 273 | 3.2 | 12.9 | 0.00 | 1.85 | 1.07 | 51 | 1012.3 |
| 20260506210024 | 14 | 273 | 4.8 | 14.5 | 0.00 | 1.85 | 1.07 | 51 | 1012.6 |
| 20260506205637 | 15 | 286 | 3.2 | 9.7 | 0.00 | 1.85 | 1.07 | 53 | 1012.2 |
| 20260506204915 | 14 | 273 | 3.2 | 8.0 | 0.00 | 1.85 | 1.07 | 53 | 1012.2 |
| 20260506204515 | 14 | 286 | 1.6 | 8.0 | 0.00 | 1.91 | 1.07 | 53 | 1012.6 |
| 20260506204346 | 14 | 282 | 3.2 | 12.9 | 0.00 | 1.85 | 1.07 | 53 | 1012.3 |
| 20260506203847 | 14 | 288 | 4.8 | 12.9 | 0.00 | 1.85 | 1.07 | 52 | 1012.3 |
| 20260506203317 | 14 | 290 | 3.2 | 8.0 | 0.00 | 1.88 | 1.07 | 55 | 1012.5 |
| 20260506203004 | 14 | 273 | 1.6 | 4.8 | 0.00 | 1.91 | 1.07 | 53 | 1012.7 |
| 20260506202814 | 14 | 288 | 3.2 | 11.3 | 0.00 | 1.88 | 1.07 | 54 | 1012.4 |
| 20260506202515 | 14 | 288 | 3.2 | 11.3 | 0.00 | 1.88 | 1.07 | 56 | 1012.5 |
| 20260506201746 | 14 | 288 | 3.2 | 8.0 | 0.00 | 1.88 | 1.07 | 53 | 1012.4 |
| 20260506201520 | 13 | 288 | 3.2 | 9.7 | 0.00 | 1.91 | 1.07 | 53 | 1012.7 |
| 20260506201502 | 14 | 273 | 3.2 | 12.9 | 0.00 | 1.88 | 1.07 | 55 | 1012.4 |
| 20260506200717 | 13 | 273 | 4.8 | 12.9 | 0.00 | 1.91 | 1.07 | 53 | 1012.5 |
| 20260506200652 | 14 | 273 | 3.2 | 9.7 | 0.00 | 1.91 | 1.07 | 55 | 1012.4 |
| 20260506200012 | 13 | 273 | 3.2 | 9.7 | 0.00 | 1.91 | 1.07 | 55 | 1012.7 |
| 20260506195645 | 14 | 273 | 3.2 | 8.0 | 0.00 | 1.93 | 1.07 | 53 | 1012.5 |
| 20260506195142 | 14 | 273 | 3.2 | 8.0 | 0.00 | 1.93 | 1.07 | 56 | 1012.4 |
| 20260506194618 | 14 | 288 | 3.2 | 11.3 | 0.00 | 1.96 | 1.07 | 53 | 1012.3 |
| 20260506194547 | 14 | 289 | 1.6 | 8.0 | 0.00 | 2.44 | 1.07 | 54 | 1012.6 |
| 20260506194113 | 15 | 288 | 3.2 | 11.3 | 0.00 | 1.98 | 1.07 | 49 | 1012.3 |
| 20260506193611 | 15 | 140 | 4.8 | 11.3 | 0.00 | 2.03 | 1.07 | 54 | 1012.3 |
| 20260506193101 | 15 | 146 | 4.8 | 11.3 | 0.00 | 2.44 | 1.07 | 52 | 1012.5 |
| 20260506193044 | 15 | 273 | 4.8 | 11.3 | 0.00 | 2.21 | 1.07 | 52 | 1012.2 |
| 20260506192541 | 15 | 186 | 3.2 | 11.3 | 0.00 | 2.36 | 1.07 | 49 | 1012.0 |
| 20260506192015 | 15 | 184 | 3.2 | 11.3 | 0.00 | 2.39 | 1.07 | 54 | 1012.0 |
| 20260506191553 | 15 | 75 | 3.2 | 16.1 | 0.00 | 2.44 | 1.07 | 53 | 1012.3 |
| 20260506191513 | 15 | 184 | 4.8 | 16.1 | 0.00 | 2.44 | 1.07 | 53 | 1012.0 |
| 20260506191009 | 15 | 161 | 4.8 | 16.1 | 0.00 | 2.44 | 1.07 | 52 | 1012.1 |
| 20260506190729 | 15 | 191 | 4.8 | 20.9 | 0.00 | 2.44 | 1.07 | 51 | 1012.1 |
| 20260506190032 | 15 | 249 | 4.8 | 20.9 | 0.00 | 2.44 | 1.07 | 54 | 1012.3 |
| 20260506185937 | 15 | 189 | 4.8 | 20.9 | 0.00 | 2.44 | 1.07 | 56 | 1012.0 |
| 20260506185436 | 15 | 226 | 4.8 | 19.3 | 0.00 | 2.44 | 1.07 | 53 | 1012.1 |
| 20260506184906 | 15 | 199 | 3.2 | 17.7 | 0.00 | 2.44 | 1.07 | 52 | 1012.1 |
| 20260506184600 | 15 | 180 | 4.8 | 17.7 | 0.00 | 2.44 | 1.07 | 50 | 1012.4 |
| 20260506184405 | 15 | 222 | 4.8 | 12.9 | 0.00 | 2.44 | 1.07 | 52 | 1012.1 |
| 20260506183837 | 15 | 208 | 6.4 | 12.9 | 0.00 | 2.44 | 1.07 | 52 | 1012.0 |
| 20260506183336 | 15 | 208 | 8.0 | 19.3 | 0.00 | 2.44 | 1.07 | 52 | 1011.9 |
| 20260506183044 | 15 | 132 | 4.8 | 19.3 | 0.00 | 2.44 | 1.07 | 54 | 1012.1 |
| 20260506182807 | 16 | 200 | 4.8 | 19.3 | 0.00 | 2.44 | 1.07 | 48 | 1011.9 |
| 20260506182307 | 16 | 163 | 3.2 | 12.9 | 0.00 | 2.44 | 1.07 | 55 | 1011.8 |
| 20260506181741 | 16 | 313 | 3.2 | 12.9 | 0.00 | 2.44 | 1.07 | 54 | 1011.8 |
| 20260506181504 | 15 | 315 | 1.6 | 12.9 | 0.00 | 2.44 | 1.07 | 54 | 1012.1 |
| 20260506181455 | 15 | 295 | 4.8 | 12.9 | 0.00 | 2.44 | 1.07 | 54 | 1012.0 |
| 20260506180733 | 15 | 234 | 4.8 | 14.5 | 0.00 | 2.44 | 1.07 | 53 | 1012.1 |
| 20260506180652 | 15 | 134 | 4.8 | 14.5 | 0.00 | 2.44 | 1.07 | 55 | 1012.0 |
| 20260506180003 | 15 | 187 | 4.8 | 14.5 | 0.00 | 2.44 | 1.07 | 54 | 1012.3 |
| 20260506175703 | 15 | 193 | 3.2 | 9.7 | 0.00 | 2.44 | 1.07 | 51 | 1012.1 |
| 20260506175158 | 16 | 156 | 3.2 | 8.0 | 0.00 | 2.44 | 1.07 | 55 | 1012.2 |
| 20260506174655 | 16 | 192 | 4.8 | 8.0 | 0.00 | 2.44 | 1.07 | 53 | 1012.3 |
| 20260506174623 | 16 | 236 | 4.8 | 11.3 | 0.00 | 2.44 | 1.07 | 55 | 1012.3 |
| 20260506174521 | 16 | 196 | 4.8 | 8.0 | 0.00 | 2.44 | 1.07 | 53 | 1012.6 |
| 20260506173600 | 16 | 345 | 4.8 | 11.3 | 0.00 | 2.44 | 1.07 | 53 | 1012.4 |
| 20260506173033 | 16 | 189 | 3.2 | 11.3 | 0.00 | 2.44 | 1.07 | 52 | 1012.4 |
| 20260506173009 | 15 | 190 | 3.2 | 9.7 | 0.00 | 2.44 | 1.07 | 52 | 1012.7 |
| 20260506172751 | 15 | 222 | 4.8 | 16.1 | 0.00 | 2.44 | 1.07 | 57 | 1012.2 |
| 20260506172027 | 15 | 353 | 4.8 | 16.1 | 0.00 | 2.44 | 1.07 | 52 | 1012.3 |
| 20260506171540 | 15 | 332 | 4.8 | 14.5 | 0.00 | 2.44 | 1.07 | 56 | 1012.6 |
| 20260506171502 | 15 | 329 | 4.8 | 14.5 | 0.00 | 2.44 | 1.07 | 55 | 1012.4 |
| 20260506170936 | 15 | 18 | 4.8 | 11.3 | 0.00 | 2.44 | 1.07 | 52 | 1012.5 |
| 20260506170447 | 15 | 319 | 4.8 | 9.7 | 0.00 | 2.44 | 1.07 | 55 | 1012.6 |
| 20260506170051 | 15 | 332 | 4.8 | 9.7 | 0.00 | 2.44 | 1.07 | 57 | 1012.8 |
| 20260506165903 | 15 | 194 | 3.2 | 11.3 | 0.00 | 2.44 | 1.07 | 57 | 1012.5 |
| 20260506165333 | 14 | 228 | 4.8 | 11.3 | 0.00 | 2.44 | 1.07 | 55 | 1012.7 |
| 20260506164832 | 14 | 210 | 4.8 | 14.5 | 0.00 | 2.44 | 1.07 | 54 | 1012.7 |
| 20260506164546 | 14 | 326 | 4.8 | 14.5 | 0.00 | 2.44 | 1.07 | 52 | 1013.0 |
| 20260506164319 | 14 | 213 | 4.8 | 14.5 | 0.00 | 2.44 | 1.07 | 54 | 1012.7 |
| 20260506164047 | 14 | 325 | 4.8 | 14.5 | 0.00 | 2.44 | 1.07 | 54 | 1012.5 |
| 20260506163253 | 14 | 288 | 4.8 | 14.5 | 0.00 | 2.44 | 1.07 | 56 | 1012.5 |
| 20260506163104 | 13 | 304 | 3.2 | 8.0 | 0.00 | 2.44 | 1.07 | 56 | 1012.9 |
| 20260506162751 | 14 | 207 | 4.8 | 14.5 | 0.00 | 2.44 | 1.07 | 57 | 1012.7 |
| 20260506162229 | 14 | 36 | 4.8 | 14.5 | 0.00 | 2.44 | 1.07 | 60 | 1012.6 |
| 20260506161655 | 14 | 358 | 4.8 | 12.9 | 0.00 | 2.44 | 1.07 | 59 | 1012.6 |
| 20260506161525 | 13 | 330 | 3.2 | 12.9 | 0.00 | 2.44 | 1.07 | 60 | 1012.8 |
| 20260506161151 | 14 | 212 | 4.8 | 14.5 | 0.00 | 2.44 | 1.07 | 56 | 1012.5 |
| 20260506160652 | 14 | 285 | 4.8 | 14.5 | 0.00 | 2.44 | 1.07 | 56 | 1012.4 |
| 20260506160121 | 14 | 181 | 4.8 | 11.3 | 0.00 | 2.44 | 1.07 | 60 | 1012.5 |
| 20260506160030 | 13 | 176 | 6.4 | 11.3 | 0.00 | 2.44 | 1.07 | 58 | 1012.7 |
| 20260506155619 | 14 | 180 | 3.2 | 9.7 | 0.00 | 2.44 | 1.07 | 62 | 1012.5 |
| 20260506155051 | 13 | 356 | 3.2 | 11.3 | 0.00 | 2.44 | 1.07 | 61 | 1012.3 |
| 20260506154605 | 13 | 325 | 3.2 | 11.3 | 0.00 | 2.44 | 1.07 | 58 | 1012.5 |
| 20260506154523 | 13 | 325 | 4.8 | 11.3 | 0.00 | 2.44 | 1.07 | 58 | 1012.3 |
| 20260506154221 | 13 | 327 | 4.8 | 9.7 | 0.00 | 2.44 | 1.07 | 58 | 1012.2 |
| 20260506153453 | 13 | 308 | 3.2 | 8.0 | 0.00 | 2.44 | 1.07 | 61 | 1012.4 |
| 20260506153006 | 13 | 290 | 1.6 | 8.0 | 0.00 | 2.44 | 1.07 | 60 | 1012.8 |
| 20260506152928 | 13 | 290 | 3.2 | 8.0 | 0.00 | 2.44 | 1.07 | 59 | 1012.6 |
| 20260506152423 | 13 | 309 | 3.2 | 8.0 | 0.00 | 2.44 | 1.07 | 62 | 1012.8 |
| 20260506151919 | 13 | 259 | 3.2 | 9.7 | 0.00 | 2.44 | 1.07 | 63 | 1012.7 |
| 20260506151607 | 12 | 219 | 1.6 | 9.7 | 0.00 | 2.44 | 1.07 | 62 | 1012.8 |
| 20260506151417 | 13 | 217 | 4.8 | 9.7 | 0.00 | 2.44 | 1.07 | 62 | 1012.5 |
| 20260506150852 | 13 | 218 | 4.8 | 9.7 | 0.00 | 2.44 | 1.07 | 63 | 1012.1 |
| 20260506150322 | 13 | 239 | 3.2 | 11.3 | 0.00 | 2.44 | 1.07 | 65 | 1012.0 |
| 20260506150031 | 12 | 238 | 3.2 | 9.7 | 0.00 | 2.44 | 1.07 | 64 | 1012.3 |
| 20260506150023 | 12 | 286 | 3.2 | 9.7 | 0.00 | 2.44 | 1.07 | 64 | 1011.9 |
| 20260506145228 | 12 | 307 | 3.2 | 9.7 | 0.00 | 2.44 | 1.07 | 68 | 1011.8 |
| 20260506144724 | 12 | 278 | 4.8 | 12.9 | 0.00 | 2.44 | 1.07 | 69 | 1011.7 |
| 20260506144608 | 11 | 347 | 1.6 | 12.9 | 0.00 | 2.44 | 1.07 | 70 | 1011.8 |
| 20260506144221 | 11 | 302 | 4.8 | 12.9 | 0.00 | 2.44 | 1.07 | 70 | 1011.6 |
| 20260506143721 | 11 | 282 | 3.2 | 12.9 | 0.00 | 2.44 | 1.07 | 73 | 1011.4 |
| 20260506143408 | 11 | 292 | 3.2 | 9.7 | 0.00 | 2.44 | 1.07 | 76 | 1011.4 |
| 20260506143059 | 10 | 289 | 1.6 | 8.0 | 0.00 | 2.44 | 1.07 | 77 | 1011.5 |
| 20260506142650 | 10 | 273 | 3.2 | 12.9 | 0.00 | 2.44 | 1.07 | 77 | 1011.4 |
| 20260506142125 | 10 | 273 | 3.2 | 12.9 | 0.00 | 2.44 | 1.07 | 76 | 1011.3 |
| 20260506141815 | 10 | 289 | 3.2 | 8.0 | 0.00 | 2.44 | 1.07 | 79 | 1011.6 |
| 20260506141503 | 10 | 290 | 1.6 | 6.4 | 0.00 | 2.44 | 1.07 | 79 | 1011.7 |
| 20260506141057 | 10 | 273 | 3.2 | 8.0 | 0.00 | 2.44 | 1.07 | 79 | 1011.6 |
| 20260506141040 | 10 | 291 | 3.2 | 9.7 | 0.00 | 2.44 | 1.07 | 79 | 1011.4 |
| 20260506140048 | 10 | 273 | 3.2 | 9.7 | 0.00 | 2.44 | 1.07 | 81 | 1011.3 |
| 20260506140025 | 10 | 273 | 1.6 | 9.7 | 0.00 | 2.44 | 1.07 | 81 | 1011.5 |
| 20260506135520 | 10 | 287 | 3.2 | 17.7 | 0.00 | 2.44 | 1.07 | 81 | 1011.3 |
| 20260506135017 | 9 | 284 | 3.2 | 17.7 | 0.00 | 2.44 | 1.07 | 82 | 1011.2 |
| 20260506134506 | 9 | 284 | 1.6 | 8.0 | 0.00 | 2.44 | 1.07 | 83 | 1011.3 |
| 20260506134450 | 9 | 285 | 1.6 | 8.0 | 0.00 | 2.44 | 1.07 | 83 | 1011.2 |
| 20260506133950 | 9 | 273 | 1.6 | 8.0 | 0.00 | 2.44 | 1.07 | 84 | 1011.3 |
| 20260506133438 | 8 | 273 | 0.0 | 3.2 | 0.00 | 2.44 | 1.07 | 85 | 1011.3 |
| 20260506133050 | 8 | 288 | 0.0 | 3.2 | 0.00 | 2.44 | 1.07 | 86 | 1011.4 |
| 20260506132934 | 8 | 288 | 0.0 | 4.8 | 0.00 | 2.44 | 1.07 | 86 | 1011.3 |
| 20260506132437 | 8 | 287 | 0.0 | 4.8 | 0.00 | 2.44 | 1.07 | 88 | 1011.3 |
| 20260506131909 | 8 | 282 | 0.0 | 4.8 | 0.00 | 2.44 | 1.07 | 88 | 1011.1 |
| 20260506131607 | 8 | 278 | 0.0 | 3.2 | 0.00 | 2.44 | 1.07 | 88 | 1011.1 |
| 20260506131408 | 8 | 278 | 0.0 | 4.8 | 0.00 | 2.44 | 1.07 | 89 | 1010.9 |
| 20260506131106 | 8 | 278 | 0.0 | 4.8 | 0.00 | 2.44 | 1.07 | 89 | 1010.9 |
| 20260506130316 | 8 | 278 | 0.0 | 4.8 | 0.00 | 2.44 | 1.07 | 89 | 1011.2 |
| 20260506130030 | 8 | 278 | 0.0 | 4.8 | 0.00 | 2.44 | 1.07 | 89 | 1011.3 |
| 20260506125751 | 8 | 278 | 0.0 | 4.8 | 0.00 | 2.44 | 1.07 | 90 | 1011.2 |
| 20260506125227 | 8 | 278 | 1.6 | 14.5 | 0.00 | 2.44 | 1.07 | 90 | 1011.0 |
| 20260506124703 | 8 | 273 | 0.0 | 14.5 | 0.00 | 2.44 | 1.07 | 91 | 1010.8 |
| 20260506124501 | 7 | 288 | 0.0 | 3.2 | 0.00 | 2.44 | 1.07 | 91 | 1010.9 |
| 20260506124205 | 8 | 287 | 0.0 | 4.8 | 0.00 | 2.44 | 1.07 | 92 | 1010.7 |
| 20260506123855 | 7 | 287 | 0.0 | 4.8 | 0.00 | 2.44 | 1.07 | 92 | 1010.7 |
| 20260506123137 | 7 | 278 | 0.0 | 4.8 | 0.00 | 2.44 | 1.07 | 93 | 1010.8 |
| 20260506123013 | 7 | 278 | 0.0 | 3.2 | 0.00 | 2.44 | 1.07 | 93 | 1010.9 |
| 20260506122616 | 7 | 278 | 0.0 | 4.8 | 0.00 | 2.44 | 1.07 | 93 | 1010.6 |
| 20260506122057 | 7 | 288 | 0.0 | 8.0 | 0.00 | 2.44 | 1.07 | 94 | 1010.6 |
| 20260506121559 | 7 | 283 | 1.6 | 8.0 | 0.00 | 2.44 | 1.07 | 94 | 1010.6 |
| 20260506121529 | 7 | 283 | 0.0 | 8.0 | 0.00 | 2.44 | 1.07 | 94 | 1010.7 |
| 20260506121042 | 7 | 289 | 1.6 | 11.3 | 0.00 | 2.44 | 1.07 | 94 | 1010.5 |
| 20260506121007 | 7 | 278 | 1.6 | 11.3 | 0.00 | 2.44 | 1.07 | 94 | 1010.1 |
| 20260506120059 | 7 | 282 | 0.0 | 4.8 | 0.00 | 2.44 | 1.07 | 94 | 1010.2 |
| 20260506120020 | 7 | 282 | 0.0 | 4.8 | 0.00 | 2.44 | 1.07 | 94 | 1010.2 |
| 20260506115456 | 7 | 282 | 0.0 | 3.2 | 0.00 | 2.44 | 1.07 | 94 | 1010.3 |